This is the latest recevied weather packets stored in our database for station/object VK6JI-11. If no packets are shown the sender has not sent any weather packets the latest 10 day(s).
| Time | Temp. | Humidity | Pressure | Rain* | Wind** | Luminosity | Snow |
|---|---|---|---|---|---|---|---|
| 1777279589 | 15.56° C | 94% | 1013.9 hPa | 0.51 mm | - | 12 W/m² | - |
| 1777279469 | 15.56° C | 94% | 1013.8 hPa | 0.51 mm | - | 14 W/m² | - |
| 1777279349 | 15.56° C | 94% | 1013.8 hPa | 0.51 mm | - | 16 W/m² | - |
| 1777279228 | 15.56° C | 94% | 1013.7 hPa | 0.51 mm | - | 16 W/m² | - |
| 1777279107 | 15.56° C | 94% | 1013.8 hPa | 0.51 mm | - | 18 W/m² | - |
| 1777278987 | 15.56° C | 94% | 1013.8 hPa | 0.51 mm | - | 19 W/m² | - |
| 1777278867 | 15.56° C | 94% | 1013.8 hPa | 0.51 mm | - | 16 W/m² | - |
| 1777278747 | 15.56° C | 94% | 1013.8 hPa | 0.51 mm | - | 14 W/m² | - |
| 1777278626 | 15.56° C | 94% | 1013.9 hPa | 0.51 mm | - | 11 W/m² | - |
| 1777278505 | 15.56° C | 94% | 1013.9 hPa | 0.51 mm | - | 11 W/m² | - |
| 1777278385 | 15.56° C | 94% | 1013.9 hPa | 0.51 mm | - | 12 W/m² | - |
| 1777278264 | 15.56° C | 94% | 1014 hPa | 0.51 mm | - | 12 W/m² | - |
| 1777278141 | 15.56° C | 94% | 1014 hPa | 0.51 mm | - | 12 W/m² | - |
| 1777278020 | 15.56° C | 94% | 1014 hPa | 0.25 mm | - | 11 W/m² | - |
| 1777277900 | 15.56° C | 94% | 1013.9 hPa | 0.25 mm | - | 14 W/m² | - |
| 1777277779 | 15.56° C | 94% | 1013.8 hPa | 0.51 mm | - | 14 W/m² | - |
| 1777277659 | 15.56° C | 94% | 1013.8 hPa | 0.51 mm | - | 16 W/m² | - |
| 1777277538 | 15.56° C | 94% | 1013.8 hPa | 0.51 mm | - | 19 W/m² | - |
| 1777277419 | 15.56° C | 94% | 1013.8 hPa | 0.51 mm | - | 23 W/m² | - |
| 1777277298 | 15.56° C | 94% | 1013.8 hPa | 0.51 mm | - | 23 W/m² | - |
| 1777277178 | 15.56° C | 94% | 1013.8 hPa | 0.51 mm | - | 23 W/m² | - |
| 1777277058 | 15.56° C | 94% | 1013.8 hPa | 0.25 mm | - | 21 W/m² | - |
| 1777276936 | 15.56° C | 94% | 1013.7 hPa | 0.25 mm | - | 21 W/m² | - |
| 1777276816 | 15.56° C | 94% | 1013.8 hPa | 0.25 mm | - | 19 W/m² | - |
| 1777276696 | 15.56° C | 94% | 1013.6 hPa | 0.25 mm | - | 21 W/m² | - |
* Rain latest hour (hover to see other rain measurements)
** Current wind speed in m/s (hover to see current wind gust speed)